Miscellaneous Local Product
Issued by NWS Hastings, NE

Home | Current Version | Previous Version | Text Only | Print | Product List | Glossary Off
Versions: 1 2 3 4 5 6 7 8 9 10 11 12 13 14 15 16 17 18 19 20 21 22 23 24 25 26 27 28 29 30 31 32 33 34 35 36 37 38 39 40 41 42 43 44 45 46 47 48 49 50

000
AXUS43 KGID 051402
MISGRI

GID CWA HOURLY WEATHER ROUNDUP
NATIONAL WEATHER SERVICE HASTINGS NE
900 AM CDT TUE MAY 05 2015

NOTE: "FAIR" INDICATES FEW OR NO CLOUDS BELOW 12,000 FEET WITH NO
SIGNIFICANT WEATHER AND/OR OBSTRUCTIONS TO VISIBILITY.

...SOUTH CENTRAL NEBRASKA...

CITY           SKY/WX    TMP DP  RH WIND       PRES   REMARKS
GRAND ISLAND   FOG       58  57  97 E6        30.07S VSB 1
HASTINGS       CLOUDY    61  59  93 NE5       30.05S FOG
KEARNEY        CLOUDY    57  55  94 E5        30.05S
ORD            LGT RAIN  55  54  96 SE8       30.06R VSB 1
YORK           FOG       59  59 100 E9        30.07R VSB<1/4
AURORA         FOG       59  59 100 E6        30.06S VSB 3/4
LEXINGTON      FOG       56  55  97 E7        30.04S VSB<1/4
HOLDREGE       CLOUDY    57  56  97 CALM      30.04S FOG
HEBRON         PTSUNNY   64  58  83 SE8       30.05S

...NEBRASKA PANHANDLE...

CITY           SKY/WX    TMP DP  RH WIND       PRES   REMARKS
CHADRON        CLOUDY    51  45  79 E8        30.00S
ALLIANCE       CLOUDY    49  46  90 S9        30.02R
SCOTTSBLUFF    CLOUDY    49  46  90 S12G23    30.01S FOG
SIDNEY         CLOUDY    47  45  93 SE5       30.02F

...WESTERN AND NORTH CENTRAL NEBRASKA...

CITY           SKY/WX    TMP DP  RH WIND       PRES   REMARKS
VALENTINE      CLOUDY    53  48  83 E7        30.05S
AINSWORTH      FOG       53  52  97 E12       30.05S VSB 3/4
ONEILL         CLOUDY    54  52  95 E6        30.07F FOG
BROKEN BOW     FOG       55  54  96 SE10      30.05R VSB 1/2
IMPERIAL       CLOUDY    51  50  96 NE8       30.01F FOG
NORTH PLATTE   CLOUDY    52  52 100 E7        30.04S FOG
MCCOOK         FOG       56  55  97 E8        30.01S VSB 3/4

...EASTERN NEBRASKA...

CITY           SKY/WX    TMP DP  RH WIND       PRES   REMARKS
NORFOLK        FOG       55  55 100 SE9       30.07R VSB 1/2
SO SIOUX CITY  CLOUDY    56  52  86 E9        30.09R
TEKAMAH        CLOUDY    60  58  92 S5        30.08R FOG
COLUMBUS       CLOUDY    57  54  88 E7        30.09S VSB 1
ALBION         FOG       55  54  95 SE8       30.08R VSB 1/2
OMAHA EPPLEY   CLOUDY    63  60  90 S9        30.09R
MILLARD        CLOUDY    63  60  90 SE8       30.09R
LINCOLN        CLOUDY    62  59  90 SE6       30.08S
NEBRASKA CITY  CLOUDY    61  61  99 SE6       30.10R
BEATRICE       MOSUNNY   63  59  85 SE5       30.06S
FALLS CITY     CLOUDY    62  59  90 SE8       30.09R

...NORTHERN KANSAS...

CITY           SKY/WX    TMP DP  RH WIND       PRES   REMARKS
GOODLAND       FOG       54  54 100 SE7       30.00S VSB 1
HILL CITY      CLOUDY    60  58  92 E8        30.00S FOG
NORTON         CLOUDY    57  55  94 E6        30.00S
PHILLIPSBURG   CLOUDY    63  63 100 E8        30.02R
SMITH CENTER   SUNNY     61  57  88 SE12      30.03R
HAYS           CLOUDY    61  54  77 SE13      30.01S
RUSSELL        CLOUDY    63  58  83 SE16      30.00R
CONCORDIA      PTSUNNY   66  59  78 S13       30.04S
SALINA         CLOUDY    65  58  78 SE13      30.04S
TOPEKA         CLOUDY    66  61  84 E5        30.09S



USA.gov is the U.S. government's official web portal to all federal, state and local government web resources and services.